LSP Weather Reports


time (UTC)temp
C
wind
direction
speed
KPH
gust
KPH
rain 1hr
cm
rain 24hr
cm
rain mn
cm
humidity
%
barometer
mb
20260504211553 20 5 4.8 19.3 0.00 0.00 0.00 24 1004.2
20260504210054 20 340 8.0 16.1 0.00 0.00 0.00 24 1004.0
20260504204601 20 360 11.3 22.5 0.00 0.00 0.00 25 1004.0
20260504203100 20 284 9.7 24.1 0.00 0.00 0.00 24 1004.1
20260504201553 20 18 1.6 20.9 0.00 0.00 0.00 26 1004.0
20260504200054 20 284 8.0 30.6 0.00 0.00 0.00 24 1004.3
20260504194554 20 351 8.0 20.9 0.00 0.00 0.00 25 1004.4
20260504193058 20 355 9.7 22.5 0.00 0.00 0.00 25 1004.5
20260504191600 19 335 9.7 25.7 0.00 0.00 0.00 26 1004.5
20260504184555 19 348 11.3 24.1 0.00 0.00 0.00 26 1004.9
20260504183052 18 323 4.8 17.7 0.00 0.00 0.00 27 1004.8
20260504181601 18 301 6.4 24.1 0.00 0.00 0.00 28 1004.9
20260504180114 18 5 12.9 27.4 0.00 0.00 0.00 26 1004.9
20260504174553 19 338 6.4 24.1 0.00 0.00 0.00 27 1004.8
20260504173054 18 277 8.0 27.4 0.00 0.00 0.00 27 1004.9
20260504171558 18 342 11.3 29.0 0.00 0.00 0.00 26 1004.8
20260504160107 17 294 6.4 27.4 0.00 0.00 0.00 26 1005.0
20260504081552 6 0 0.0 4.8 0.00 0.05 0.00 51 1007.6
20260504050105 6 286 3.2 12.9 0.00 0.05 0.00 41 1007.4
20260504044559 6 298 4.8 14.5 0.00 0.05 0.00 42 1007.4
20260504043055 6 182 4.8 16.1 0.00 0.05 0.00 43 1007.5
20260504041600 6 274 4.8 14.5 0.00 0.05 0.00 45 1007.4
20260504040058 5 272 1.6 9.7 0.00 0.05 0.00 48 1007.3
20260504034557 5 0 1.6 12.9 0.00 0.05 0.05 50 1007.3
20260504033053 3 278 1.6 4.8 0.00 0.05 0.05 54 1007.3
20260504031552 3 278 1.6 9.7 0.00 0.05 0.05 57 1007.3
20260504030057 2 0 0.0 0.0 0.00 0.05 0.05 62 1007.4
20260504024608 2 0 0.0 0.0 0.00 0.08 0.05 62 1007.5
20260504023055 3 0 0.0 6.4 0.00 0.08 0.05 60 1007.4
20260504021557 4 0 0.0 6.4 0.00 0.08 0.05 58 1007.3
20260504020054 4 0 0.0 4.8 0.00 0.08 0.05 56 1007.4
20260504014604 5 0 0.0 6.4 0.00 0.08 0.05 53 1007.3
20260504013057 5 0 0.0 6.4 0.00 0.08 0.05 55 1007.4
20260504011555 5 0 0.0 4.8 0.00 0.08 0.05 54 1007.4
20260504004552 6 309 0.0 8.0 0.00 0.08 0.05 47 1007.0
20260504003053 7 0 3.2 14.5 0.00 0.08 0.05 40 1006.8
20260504001552 7 352 4.8 14.5 0.00 0.08 0.05 38 1006.8
20260504000137 7 327 3.2 14.5 0.00 0.08 0.05 38 1006.4
20260503234602 8 351 4.8 19.3 0.00 0.13 0.05 37 1006.3
20260503233053 8 355 8.0 16.1 0.00 0.13 0.05 39 1005.9
20260503231553 8 329 3.2 14.5 0.00 0.13 0.05 40 1005.9
20260503230051 8 355 9.7 24.1 0.00 0.13 0.05 35 1005.8
20260503224549 9 351 1.6 16.1 0.00 0.23 0.05 42 1005.8
20260503223054 9 311 6.4 22.5 0.00 0.23 0.05 41 1005.8
20260503221558 9 338 8.0 19.3 0.00 0.23 0.05 40 1005.5
20260503220056 9 348 6.4 20.9 0.00 0.23 0.05 38 1005.5
20260503214551 8 350 6.4 12.9 0.00 0.25 0.05 41 1005.4
20260503213051 9 9 9.7 32.2 0.00 0.25 0.05 37 1005.5